Regional Weather Roundup
Issued by NWS Albany, NY

Home | Current Version | Previous Version | Graphics & Text | Print | Product List | Glossary Off
Versions: 1 2 3 4 5 6 7 8 9 10 11 12 13 14 15 16 17 18 19 20 21 22 23 24 25 26 27 28 29 30 31 32 33 34 35 36 37 38 39 40 41 42 43 44 45 46 47 48 49 50

000
ASUS41 KALY 222010
RWRALY

NEW YORK STATE HOURLY WEATHER ROUNDUP
NATIONAL WEATHER SERVICE ALBANY NY
400 PM EDT WED MAR 22 2017

NOTE: "FAIR" INDICATES FEW OR NO CLOUDS BELOW 12,000 FEET WITH NO
SIGNIFICANT WEATHER AND/OR NO OBSTRUCTIONS TO VISIBILITY.

NYZ032-033-038>043-046>054-057>066-NYZ062>081-082-084-222100-
EAST


CITY           SKY/WX    TMP DP  RH WIND       PRES   REMARKS
ALBANY         MOSUNNY   26  -2  29 NW22G29   30.26R WCI  12
GLENS FALLS    SUNNY     23  -6  28 NW15G35   30.26R WCI  10
POUGHKEEPSIE   SUNNY     28  -3  26 NW20G31   30.22R WCI  15
NEWBURGH       SUNNY     28   1  31 NW23G40   30.21R WCI  14
MONTGOMERY     SUNNY     29  -4  24 N18G30    30.22R WCI  16
WHITE PLAINS   SUNNY     31  -3  23 NW21G32   30.17R WCI  18
ISLIP          SUNNY     34  -5  18 NW30G40   30.14S WCI  20
NEW YORK CITY  NOT AVBL
CENTRAL PARK   SUNNY     32  -5  20 NW9G35    30.24R WCI  24
$$

NYZ005>009-017-018-044>046-055-056-222100-
CENTRAL


CITY           SKY/WX    TMP DP  RH WIND       PRES   REMARKS
FULTON         MOSUNNY   22   3  44 NW20G26   30.43S WCI   7
SYRACUSE       MOSUNNY   21   3  45 NW20G30   30.42R WCI   6
ROME           SUNNY     20   0  41 NW24G32   30.38R WCI   3
ELMIRA         SUNNY     27  -2  28 NW18      30.36R WCI  14
BINGHAMTON     MOSUNNY   18   1  47 N16G24    30.28R WCI   3
MONTICELLO     SUNNY     23   1  39 NW22G32   30.20R WCI   8
$$

NYZ026>034-041>043-087-222100-
NORTH


CITY           SKY/WX    TMP DP  RH WIND       PRES   REMARKS
WATERTOWN      SUNNY     21  -2  36 NW12      30.43S WCI   9
FORT DRUM      NOT AVBL
MASSENA        NOT AVBL
SARANAC LAKE   SUNNY     11  -8  42 W13G22    30.21R WCI  -4
PLATTSBURGH    SUNNY     17  -4  39 NW18G29   30.32R WCI   1
$$

NYZ001>004-010>016-019>021-085-222100-
WEST


CITY           SKY/WX    TMP DP  RH WIND       PRES   REMARKS
NIAGARA FALLS  SUNNY     28   4  35 NW15      30.49S WCI  16
BUFFALO        MOSUNNY   26   5  40 NW17G24   30.48S WCI  13
DUNKIRK        SUNNY     25   9  50 W7        30.50F WCI  17
JAMESTOWN      SUNNY     21   3  45 NW13G18   30.40S WCI   9
WELLSVILLE     SUNNY     25   1  35 NW17G28   30.32S WCI  12
ROCHESTER      MOSUNNY   24   3  40 NW20G25   30.46S WCI  10
PENN YAN       SUNNY     23   3  42 W13G24    30.40R WCI  11
$$

             KEY
       WCI = WIND CHILL INDEX
       VSB = VISIBILITY
       HX  = HEAT INDEX
$$



USA.gov is the U.S. government's official web portal to all federal, state and local government web resources and services.